This is the latest recevied weather packets stored in our database for station/object KD4WLE. If no packets are shown the sender has not sent any weather packets the latest 10 day(s).
| Time | Temp. | Humidity | Pressure | Rain* | Wind** | Luminosity | Snow |
|---|---|---|---|---|---|---|---|
| 1777640171 | 24.44° C | 94% | 1012.8 hPa | 0 mm | - | 165 W/m² | - |
| 1777639868 | 23.89° C | 94% | 1012.7 hPa | 0 mm | - | 156 W/m² | - |
| 1777639565 | 23.89° C | 94% | 1012.7 hPa | 0 mm | - | 153 W/m² | - |
| 1777639262 | 23.89° C | 95% | 1012.6 hPa | 0 mm | - | 153 W/m² | - |
| 1777638958 | 23.89° C | 95% | 1012.8 hPa | 0 mm | - | 145 W/m² | - |
| 1777638654 | 23.89° C | 95% | 1012.7 hPa | 0 mm | - | 150 W/m² | - |
| 1777638351 | 23.33° C | 96% | 1012.6 hPa | 0 mm | - | 163 W/m² | - |
| 1777638047 | 23.33° C | 97% | 1012.4 hPa | 0 mm | - | 162 W/m² | - |
| 1777637743 | 23.33° C | 97% | 1012.7 hPa | 0 mm | - | 128 W/m² | - |
| 1777637440 | 22.78° C | 98% | 1012.7 hPa | 0 mm | - | 102 W/m² | - |
| 1777637137 | 22.22° C | 98% | 1012.7 hPa | 0 mm | - | 66 W/m² | - |
| 1777636834 | 22.22° C | 99% | 1012.4 hPa | 0 mm | - | 53 W/m² | - |
| 1777636530 | 22.22° C | 99% | 1012.4 hPa | 0 mm | - | 49 W/m² | - |
| 1777636226 | 22.22° C | 99% | 1012.5 hPa | 0 mm | - | 55 W/m² | - |
| 1777635926 | 22.22° C | 99% | 1012.1 hPa | 0 mm | - | 52 W/m² | - |
| 1777635622 | 22.22° C | 99% | 1012.2 hPa | 0 mm | - | 44 W/m² | - |
| 1777635319 | 22.22° C | 99% | 1011.8 hPa | 0 mm | - | 44 W/m² | - |
| 1777635016 | 21.67° C | 99% | 1012.1 hPa | 0 mm | - | 45 W/m² | - |
| 1777634712 | 21.67° C | 99% | 1012.1 hPa | 0 mm | - | 39 W/m² | - |
| 1777634410 | 21.67° C | 99% | 1011.8 hPa | 0 mm | - | 34 W/m² | - |
| 1777634106 | 21.67° C | 99% | 1011.9 hPa | 0 mm | - | 27 W/m² | - |
| 1777633803 | 21.67° C | 99% | 1012.1 hPa | 0 mm | - | 18 W/m² | - |
| 1777633501 | 21.67° C | 99% | 1012.2 hPa | 0 mm | - | 14 W/m² | - |
| 1777633198 | 21.67° C | 99% | 1012.2 hPa | 0 mm | - | 9 W/m² | - |
| 1777632895 | 21.67° C | 99% | 1012.1 hPa | 0 mm | - | 5 W/m² | - |
* Rain latest hour (hover to see other rain measurements)
** Current wind speed in m/s (hover to see current wind gust speed)